Weather History for Hoquiam, WA

Change the Weather History Date:

Tuesday, May 28, 2013

  Actual Average Record
Temperature  
Mean Temperature 54 °F 55 °F  
Max Temperature 57 °F 61 °F 82 °F (1972)
Min Temperature 50 °F 48 °F 37 °F (1966)
Degree Days  
Heating Degree Days 11 10  
Month to date heating degree days 302 340  
Cooling Degree Days 0 0  
Month to date cooling degree days 3 0  
Year to date cooling degree days 3 0  
Growing Degree Days 2 (Base 50)    
Moisture  
Dew Point 50 °F    
Average Humidity 87    
Maximum Humidity 96    
Minimum Humidity 77    
Precipitation  
Precipitation 0.06 in 0.10 in 0.70 in (1997)
Month to date precipitation 3.22 3.00  
Year to date precipitation 29.54 32.63  
Sea Level Pressure  
Sea Level Pressure 29.87 in    
Wind  
Wind Speed 10 mph (South)    
Max Wind Speed 20 mph    
Max Gust Speed 22 mph    
Visibility 8 miles    
Events Rain    
T = Trace of Precipitation, MM = Missing Value Source: NWS Daily Summary

Daily Weather History Graph

Daily Weather History Graph

Search for Another Location

Airport:

Trip Planner

Search our weather history database for the weather conditions in past years. The results will help you decide how hot, cold, wet, or windy it might be!

Date:

Astronomy

May. 28, 2013 Rise Set
Actual Time 5:27 AM PDT 8:59 PM PDT
Civil Twilight 4:49 AM PDT 9:37 PM PDT
Nautical Twilight 3:58 AM PDT 10:28 PM PDT
Astronomical Twilight 2:51 AM PDT 11:36 PM PDT
Moon No Moon Rise 9:28 AM PDT
Length of Visible Light 16h 48m
Length of Day
15h 32m
Waning Gibbous, 82% of the Moon is Illuminated
May 28
Waning Gibbous
May 31
Last Quarter
Jun 8
New
Jun 16
First Quarter
Jun 23
Full

Hourly Weather History & Observations

Time (PDT) Temp. Dew Point Humidity Pressure Visibility Wind Dir Wind Speed Gust Speed Precip Events Conditions
12:32 AM 51.8 °F 50.0 °F 94% 29.81 in 10.0 mi SSE 8.1 mph - N/A   Overcast
12:53 AM 52.0 °F 50.0 °F 93% 29.82 in 9.0 mi South 8.1 mph - N/A   Overcast
1:08 AM 51.8 °F 50.0 °F 94% 29.81 in 7.0 mi South 4.6 mph - N/A   Overcast
1:53 AM 52.0 °F 48.9 °F 89% 29.82 in 10.0 mi SSE 9.2 mph - 0.01 in   Overcast
2:09 AM 51.8 °F 48.2 °F 88% 29.81 in 10.0 mi SSE 8.1 mph - N/A   Overcast
2:26 AM 51.8 °F 48.2 °F 88% 29.82 in 10.0 mi SE 6.9 mph - N/A   Overcast
2:53 AM 52.0 °F 48.9 °F 89% 29.83 in 10.0 mi SSE 8.1 mph - N/A   Overcast
3:18 AM 51.8 °F 48.2 °F 88% 29.83 in 10.0 mi SE 6.9 mph - N/A   Overcast
3:35 AM 51.8 °F 48.2 °F 88% 29.83 in 10.0 mi SE 8.1 mph - 0.00 in   Overcast
3:53 AM 52.0 °F 50.0 °F 93% 29.84 in 8.0 mi SE 5.8 mph - 0.00 in   Overcast
4:07 AM 51.8 °F 50.0 °F 94% 29.83 in 10.0 mi SE 6.9 mph - N/A   Overcast
4:20 AM 51.8 °F 48.2 °F 88% 29.83 in 10.0 mi SSE 8.1 mph - N/A   Overcast
4:53 AM 52.0 °F 48.9 °F 89% 29.84 in 10.0 mi SE 6.9 mph - N/A   Overcast
5:53 AM 52.0 °F 50.0 °F 93% 29.85 in 10.0 mi SE 8.1 mph - 0.01 in   Overcast
6:53 AM 52.0 °F 48.9 °F 89% 29.86 in 10.0 mi SE 9.2 mph - N/A   Overcast
7:33 AM 53.6 °F 50.0 °F 88% 29.85 in 10.0 mi SE 6.9 mph - N/A   Overcast
7:53 AM 53.1 °F 50.0 °F 89% 29.86 in 10.0 mi SE 8.1 mph - N/A   Overcast
8:21 AM 53.6 °F 50.0 °F 88% 29.85 in 10.0 mi SE 6.9 mph - N/A   Overcast
8:51 AM 53.6 °F 50.0 °F 88% 29.85 in 10.0 mi South 10.4 mph - 0.01 in   Overcast
8:53 AM 54.0 °F 50.0 °F 86% 29.87 in 10.0 mi SSW 10.4 mph - 0.01 in   Overcast
9:32 AM 51.8 °F 51.8 °F 100% 29.87 in 2.0 mi SSW 12.7 mph - 0.00 in Rain Light Rain
9:39 AM 51.8 °F 51.8 °F 100% 29.87 in 1.8 mi South 11.5 mph - 0.00 in Rain Light Rain
9:46 AM 51.8 °F 51.8 °F 100% 29.87 in 3.0 mi South 9.2 mph - 0.00 in Rain Light Rain
9:53 AM 53.1 °F 51.1 °F 93% 29.88 in 10.0 mi South 10.4 mph - 0.00 in   Overcast
10:53 AM 53.1 °F 51.1 °F 93% 29.89 in 10.0 mi SSW 16.1 mph - 0.00 in Rain Light Rain
11:15 AM 53.6 °F 51.8 °F 94% 29.89 in 2.5 mi SSW 12.7 mph - 0.00 in Rain Light Rain
11:23 AM 53.6 °F 51.8 °F 94% 29.89 in 3.0 mi SSW 15.0 mph - 0.00 in Rain Light Rain
11:43 AM 53.6 °F 51.8 °F 94% 29.90 in 7.0 mi SSW 13.8 mph - 0.00 in   Overcast
11:53 AM 54.0 °F 51.1 °F 90% 29.91 in 10.0 mi South 13.8 mph - 0.00 in   Overcast
12:26 PM 53.6 °F 50.0 °F 88% 29.91 in 7.0 mi SSW 17.3 mph 21.9 mph 0.00 in Rain Light Rain
12:39 PM 53.6 °F 51.8 °F 94% 29.90 in 10.0 mi South 11.5 mph - 0.00 in   Overcast
12:53 PM 55.9 °F 52.0 °F 87% 29.91 in 10.0 mi South 11.5 mph - 0.00 in   Overcast
1:21 PM 55.4 °F 48.2 °F 77% 29.90 in 10.0 mi SSW 13.8 mph - 0.01 in   Overcast
1:53 PM 55.0 °F 48.0 °F 77% 29.92 in 10.0 mi South 17.3 mph - 0.01 in   Overcast
2:02 PM 55.4 °F 48.2 °F 77% 29.91 in 10.0 mi South 11.5 mph - N/A   Overcast
2:41 PM 55.4 °F 48.2 °F 77% 29.91 in 10.0 mi South 17.3 mph - 0.00 in Rain Light Rain
2:50 PM 55.4 °F 48.2 °F 77% 29.91 in 10.0 mi South 18.4 mph - 0.00 in   Overcast
2:53 PM 55.9 °F 48.0 °F 75% 29.93 in 10.0 mi SSW 16.1 mph - 0.00 in   Overcast
3:36 PM 55.4 °F 48.2 °F 77% 29.92 in 10.0 mi South 11.5 mph - N/A   Overcast
3:53 PM 55.0 °F 48.9 °F 80% 29.93 in 10.0 mi SW 17.3 mph 21.9 mph N/A   Overcast
4:21 PM 51.8 °F 50.0 °F 94% 29.92 in 2.0 mi SSW 11.5 mph - 0.00 in Rain Light Rain
4:32 PM 53.6 °F 51.8 °F 94% 29.92 in 2.5 mi SW 12.7 mph - 0.00 in Rain Light Rain
4:41 PM 51.8 °F 51.8 °F 100% 29.92 in 3.0 mi SSW 12.7 mph - 0.00 in Rain Light Rain
4:53 PM 53.1 °F 52.0 °F 96% 29.93 in 8.0 mi SSW 10.4 mph - 0.00 in   Overcast
5:01 PM 53.6 °F 51.8 °F 94% 29.91 in 10.0 mi South 8.1 mph - N/A   Overcast
5:10 PM 53.6 °F 50.0 °F 88% 29.91 in 9.0 mi SSW 15.0 mph 19.6 mph N/A   Overcast
5:24 PM 53.6 °F 48.2 °F 82% 29.90 in 7.0 mi SSW 12.7 mph - N/A   Overcast
5:42 PM 53.6 °F 50.0 °F 88% 29.90 in 5.0 mi SSW 16.1 mph 20.7 mph N/A   Overcast
5:51 PM 53.6 °F 50.0 °F 88% 29.90 in 8.0 mi SSW 11.5 mph - 0.00 in Rain Light Rain
5:53 PM 53.1 °F 50.0 °F 89% 29.91 in 10.0 mi South 10.4 mph - 0.00 in   Overcast
6:24 PM 53.6 °F 48.2 °F 82% 29.88 in 10.0 mi South 6.9 mph - 0.01 in   Overcast
6:53 PM 53.1 °F 48.0 °F 83% 29.88 in 10.0 mi SSE 9.2 mph - 0.01 in   Overcast
7:53 PM 52.0 °F 48.0 °F 86% 29.86 in 10.0 mi SSE 6.9 mph - N/A   Mostly Cloudy
8:53 PM 52.0 °F 48.0 °F 86% 29.84 in 10.0 mi ESE 5.8 mph - N/A   Overcast
9:53 PM 50.0 °F 46.9 °F 89% 29.81 in 10.0 mi East 5.8 mph - N/A   Mostly Cloudy
10:53 PM 51.1 °F 48.0 °F 89% 29.80 in 10.0 mi ENE 5.8 mph - N/A   Overcast
11:53 PM 50.0 °F 48.0 °F 93% 29.78 in 7.0 mi ENE 3.5 mph - 0.00 in Rain Light Rain